GFSCGP_500_temp_024.txt.gz
Temp
-11 -11 -11 -11 -11 -11 -11 -10 -10 -10 -10 -10 -10 -9 -10 -10 -10 -10 -10 -10 -10 -10 -11 -11 -10 -10 -11 -11 -11 -11 -11 -11 -11 -11 -11 -11 -11 -11 -11 -11 -11 -11 -11 -11
-11 -11 -12 -11 -11 -11 -11 -11 -11 -11 -11 -10 -10 -10 -10 -10 -10 -10 -10 -11 -11 -11 -11 -11 -11 -11 -11 -11 -11 -11 -11 -11 -11 -11 -11 -11 -11 -11 -11 -11 -11 -11 -11 -12
-12 -12 -12 -12 -12 -12 -11 -11 -11 -11 -11 -11 -10 -9 -9 -9 -10 -10 -11 -11 -11 -11 -11 -11 -11 -11 -11 -11 -11 -11 -11 -11 -11 -11 -11 -11 -11 -12 -12 -12 -12 -12 -12 -12
-11 -12 -12 -12 -12 -12 -12 -12 -12 -12 -12 -11 -10 -8 -9 -9 -9 -10 -11 -11 -12 -11 -11 -11 -11 -11 -12 -12 -12 -11 -11 -12 -12 -11 -11 -11 -12 -12 -12 -12 -12 -12 -12 -12
-11 -12 -12 -12 -12 -13 -12 -12 -12 -12 -12 -11 -10 -10 -9 -9 -9 -9 -10 -12 -12 -12 -12 -12 -12 -12 -12 -12 -11 -11 -12 -12 -12 -11 -11 -11 -12 -12 -12 -13 -12 -13 -13 -13
-12 -12 -12 -13 -13 -13 -12 -13 -12 -12 -12 -10 -10 -10 -9 -9 -9 -10 -10 -12 -11 -12 -12 -12 -12 -12 -12 -12 -12 -12 -12 -12 -12 -12 -12 -12 -12 -13 -13 -12 -12 -12 -13 -13
-13 -13 -13 -13 -13 -13 -13 -13 -13 -12 -11 -10 -10 -10 -8 -9 -10 -10 -11 -11 -11 -12 -12 -12 -13 -13 -12 -12 -12 -12 -12 -12 -12 -12 -12 -13 -13 -13 -13 -12 -13 -13 -13 -14
-13 -13 -13 -13 -13 -13 -13 -13 -14 -12 -12 -10 -10 -8 -8 -9 -10 -11 -11 -11 -12 -13 -13 -13 -13 -14 -13 -12 -11 -12 -12 -12 -12 -13 -13 -13 -13 -12 -12 -13 -13 -13 -14 -14
-14 -13 -14 -14 -13 -13 -12 -13 -14 -14 -13 -11 -9 -8 -8 -10 -10 -11 -12 -12 -13 -13 -13 -13 -14 -15 -13 -12 -12 -12 -13 -13 -12 -13 -13 -13 -13 -13 -13 -13 -13 -14 -14 -15
-15 -14 -13 -13 -13 -13 -14 -14 -14 -15 -14 -13 -8 -9 -10 -11 -11 -11 -13 -12 -13 -14 -15 -14 -15 -14 -13 -12 -11 -11 -13 -13 -13 -13 -13 -13 -13 -13 -14 -14 -14 -14 -15 -14
-15 -15 -14 -14 -13 -14 -15 -14 -15 -15 -14 -14 -12 -7 -9 -11 -11 -12 -13 -13 -13 -14 -15 -14 -14 -14 -13 -13 -12 -12 -13 -13 -13 -13 -13 -14 -14 -14 -14 -14 -15 -15 -15 -14
-16 -16 -16 -14 -13 -13 -13 -14 -14 -14 -14 -14 -15 -8 -9 -11 -12 -12 -13 -13 -13 -13 -15 -13 -13 -13 -13 -12 -12 -13 -13 -14 -14 -14 -14 -14 -14 -15 -15 -15 -15 -15 -15 -15
-15 -16 -15 -13 -13 -12 -13 -13 -15 -15 -15 -12 -16 -9 -12 -12 -12 -13 -13 -14 -13 -13 -14 -13 -13 -13 -12 -12 -13 -13 -14 -14 -14 -15 -15 -15 -15 -15 -16 -16 -16 -16 -16 -16
-15 -15 -15 -14 -14 -14 -14 -14 -14 -15 -14 -13 -14 -13 -11 -12 -13 -13 -13 -13 -13 -13 -13 -14 -14 -14 -14 -13 -13 -14 -14 -15 -15 -15 -15 -16 -16 -16 -16 -16 -16 -17 -17 -17
-15 -15 -15 -15 -14 -15 -16 -15 -14 -13 -13 -14 -13 -14 -13 -12 -13 -13 -13 -13 -14 -14 -13 -14 -13 -14 -14 -14 -14 -14 -15 -15 -15 -15 -16 -16 -16 -17 -17 -17 -17 -18 -18 -18
-16 -15 -16 -15 -15 -15 -16 -15 -14 -14 -14 -15 -15 -15 -13 -14 -13 -13 -13 -15 -14 -14 -14 -14 -14 -14 -14 -14 -15 -15 -15 -16 -16 -16 -16 -17 -17 -17 -17 -17 -19 -19 -19 -19
-17 -17 -17 -16 -16 -17 -17 -14 -16 -15 -15 -15 -15 -15 -14 -14 -15 -16 -14 -14 -14 -14 -15 -14 -14 -14 -14 -14 -14 -15 -15 -16 -16 -17 -17 -17 -17 -18 -18 -19 -19 -20 -20 -20
-17 -17 -18 -18 -18 -18 -16 -16 -16 -15 -16 -16 -16 -15 -15 -15 -16 -16 -15 -15 -15 -15 -14 -14 -15 -15 -15 -15 -16 -16 -16 -17 -17 -18 -18 -18 -18 -19 -19 -20 -20 -20 -20 -20
-18 -18 -18 -19 -18 -18 -18 -15 -16 -16 -17 -17 -16 -16 -16 -16 -18 -15 -16 -17 -16 -15 -16 -16 -16 -16 -16 -17 -17 -17 -18 -18 -18 -18 -18 -18 -19 -19 -20 -20 -20 -21 -21 -20
-18 -19 -19 -19 -19 -19 -17 -16 -16 -18 -19 -15 -16 -17 -18 -18 -18 -18 -17 -17 -16 -16 -16 -17 -17 -17 -17 -18 -18 -18 -18 -18 -18 -18 -19 -19 -20 -20 -20 -20 -20 -21 -21 -21
-19 -19 -20 -20 -20 -20 -18 -17 -17 -20 -16 -17 -18 -18 -18 -18 -19 -19 -18 -18 -18 -17 -18 -18 -17 -18 -18 -19 -19 -19 -19 -19 -19 -19 -20 -20 -20 -20 -20 -21 -21 -21 -21 -22
-19 -20 -20 -20 -20 -21 -17 -20 -20 -17 -18 -18 -18 -19 -18 -19 -20 -19 -18 -19 -19 -19 -19 -19 -18 -19 -19 -19 -19 -19 -19 -19 -20 -20 -20 -20 -20 -21 -21 -21 -21 -22 -22 -22
-21 -20 -20 -21 -20 -20 -20 -20 -18 -19 -19 -19 -19 -18 -19 -20 -20 -20 -19 -18 -19 -19 -20 -19 -19 -19 -19 -19 -19 -20 -20 -20 -20 -20 -21 -21 -21 -21 -21 -22 -22 -22 -22 -23
-21 -21 -21 -21 -20 -20 -20 -20 -20 -20 -20 -20 -19 -19 -19 -19 -20 -20 -21 -20 -20 -19 -19 -20 -19 -19 -19 -19 -19 -20 -20 -20 -20 -20 -21 -21 -21 -22 -22 -23 -23 -23 -23 -25
-22 -23 -23 -21 -21 -21 -21 -21 -21 -21 -21 -21 -21 -20 -20 -20 -20 -21 -21 -21 -21 -20 -20 -19 -20 -20 -20 -20 -20 -20 -20 -20 -20 -21 -21 -22 -22 -23 -23 -24 -25 -25 -26 -26
-23 -23 -23 -22 -22 -23 -22 -22 -22 -21 -21 -22 -22 -22 -21 -21 -21 -21 -21 -21 -21 -21 -21 -20 -21 -20 -20 -20 -20 -20 -20 -21 -21 -21 -22 -22 -23 -24 -24 -25 -27 -28 -28 -29

GFSCGP_500_temp_030.txt.gz
Temp
-10 -10 -10 -11 -11 -11 -10 -11 -11 -10 -11 -12 -11 -10 -10 -11 -10 -10 -10 -11 -11 -11 -11 -11 -10 -11 -10 -10 -10 -10 -10 -11 -11 -11 -11 -10 -11 -10 -11 -10 -10 -10 -10 -10
-10 -9 -10 -11 -11 -11 -10 -10 -10 -10 -11 -11 -11 -10 -10 -10 -10 -10 -10 -11 -11 -11 -11 -11 -10 -10 -10 -10 -10 -10 -10 -11 -11 -11 -11 -11 -11 -11 -11 -11 -10 -10 -11 -11
-10 -10 -10 -10 -10 -11 -11 -11 -11 -11 -11 -11 -10 -10 -9 -10 -10 -10 -10 -11 -11 -11 -11 -10 -10 -10 -10 -10 -9 -10 -11 -11 -11 -11 -11 -11 -11 -11 -11 -11 -11 -11 -11 -11
-10 -10 -10 -11 -10 -11 -10 -11 -11 -11 -11 -11 -11 -9 -9 -9 -10 -10 -10 -10 -11 -11 -11 -10 -10 -10 -10 -10 -10 -10 -11 -11 -11 -11 -11 -11 -11 -11 -11 -11 -11 -11 -11 -11
-10 -11 -11 -11 -11 -12 -11 -11 -11 -11 -11 -11 -11 -10 -8 -9 -9 -10 -10 -10 -11 -11 -11 -10 -11 -10 -10 -10 -10 -11 -11 -11 -11 -10 -11 -11 -11 -12 -12 -11 -11 -11 -11 -11
-12 -12 -12 -12 -12 -12 -12 -11 -12 -12 -12 -10 -10 -11 -8 -10 -10 -10 -10 -10 -11 -11 -11 -11 -11 -10 -10 -11 -11 -11 -11 -11 -11 -11 -11 -11 -11 -12 -12 -12 -12 -11 -11 -11
-12 -12 -13 -13 -13 -13 -13 -13 -13 -12 -12 -10 -11 -11 -9 -10 -10 -11 -10 -11 -12 -11 -11 -12 -12 -13 -12 -12 -12 -12 -11 -11 -11 -11 -12 -11 -11 -12 -12 -12 -12 -12 -12 -12
-14 -13 -13 -13 -13 -14 -14 -14 -13 -14 -13 -11 -12 -9 -9 -11 -11 -11 -11 -12 -13 -12 -12 -11 -13 -13 -13 -12 -12 -12 -11 -12 -12 -12 -12 -12 -12 -12 -12 -12 -12 -12 -12 -12
-16 -15 -14 -14 -14 -14 -13 -13 -14 -14 -12 -12 -10 -10 -10 -10 -11 -11 -12 -12 -12 -12 -13 -13 -13 -13 -13 -13 -13 -13 -12 -12 -12 -12 -12 -12 -12 -12 -13 -13 -13 -13 -13 -13
-16 -15 -15 -15 -15 -14 -14 -14 -14 -14 -14 -13 -9 -11 -10 -11 -13 -13 -14 -14 -13 -13 -13 -13 -13 -13 -14 -13 -13 -13 -13 -13 -12 -13 -12 -12 -12 -13 -13 -13 -13 -13 -13 -14
-16 -16 -15 -15 -15 -14 -14 -15 -15 -15 -15 -14 -12 -9 -10 -12 -12 -12 -14 -14 -14 -14 -14 -14 -14 -14 -14 -13 -13 -13 -13 -13 -13 -13 -13 -12 -13 -13 -14 -13 -13 -13 -14 -14
-16 -16 -16 -15 -15 -15 -15 -15 -15 -15 -13 -14 -14 -10 -10 -11 -12 -13 -14 -13 -14 -15 -14 -14 -14 -13 -14 -14 -14 -13 -13 -13 -14 -13 -13 -13 -13 -14 -14 -14 -13 -13 -14 -15
-16 -16 -15 -15 -15 -15 -15 -15 -15 -15 -15 -15 -14 -12 -12 -12 -13 -13 -14 -14 -15 -15 -14 -14 -14 -14 -14 -14 -14 -15 -14 -15 -14 -14 -14 -14 -14 -14 -14 -14 -14 -15 -15 -15
-17 -16 -16 -16 -16 -16 -16 -16 -16 -16 -18 -13 -14 -13 -11 -12 -13 -13 -14 -15 -15 -15 -15 -15 -15 -15 -14 -14 -14 -15 -15 -14 -14 -14 -14 -14 -14 -14 -15 -15 -15 -15 -16 -16
-17 -18 -17 -17 -17 -16 -16 -16 -16 -16 -15 -16 -14 -15 -13 -12 -14 -14 -15 -15 -15 -15 -16 -15 -15 -15 -15 -15 -15 -14 -15 -15 -15 -14 -14 -14 -14 -14 -15 -15 -15 -16 -17 -17
-17 -18 -18 -18 -17 -16 -17 -17 -17 -15 -15 -16 -16 -16 -13 -15 -15 -14 -15 -15 -16 -16 -17 -17 -17 -16 -15 -15 -15 -15 -15 -15 -15 -15 -15 -15 -15 -15 -16 -16 -17 -17 -18 -18
-20 -20 -18 -18 -18 -18 -18 -16 -15 -17 -17 -17 -17 -16 -15 -15 -15 -15 -16 -16 -17 -17 -18 -18 -17 -16 -16 -16 -15 -15 -15 -16 -16 -16 -16 -16 -16 -16 -16 -16 -18 -18 -19 -19
-20 -20 -20 -19 -19 -19 -16 -17 -17 -16 -16 -16 -17 -17 -17 -16 -16 -17 -17 -18 -18 -18 -19 -18 -17 -17 -16 -16 -16 -16 -17 -17 -17 -17 -17 -17 -17 -18 -18 -19 -19 -19 -19 -19
-21 -20 -20 -20 -20 -19 -20 -18 -17 -17 -17 -17 -17 -17 -17 -18 -18 -18 -18 -19 -19 -19 -19 -18 -18 -18 -18 -18 -18 -18 -18 -18 -18 -18 -18 -18 -19 -19 -20 -20 -20 -20 -20 -19
-22 -21 -21 -21 -21 -21 -19 -19 -19 -19 -20 -18 -16 -17 -20 -19 -19 -18 -18 -20 -19 -19 -19 -20 -19 -19 -18 -18 -18 -19 -19 -19 -19 -19 -19 -20 -20 -20 -20 -20 -20 -20 -20 -19
-23 -22 -22 -21 -22 -22 -21 -20 -20 -21 -20 -20 -21 -20 -20 -20 -20 -19 -19 -18 -18 -19 -20 -20 -20 -20 -19 -19 -19 -19 -20 -20 -20 -20 -20 -20 -20 -21 -21 -20 -20 -20 -20 -20
-24 -23 -23 -22 -22 -22 -22 -22 -21 -21 -21 -21 -21 -21 -20 -20 -19 -19 -19 -19 -19 -19 -20 -21 -20 -20 -19 -19 -20 -20 -21 -20 -20 -20 -20 -21 -21 -21 -21 -21 -21 -20 -20 -20
-24 -24 -22 -21 -21 -22 -23 -22 -21 -21 -21 -21 -21 -21 -21 -21 -21 -21 -21 -20 -20 -20 -21 -21 -21 -21 -20 -20 -20 -20 -21 -21 -20 -20 -21 -21 -21 -22 -22 -21 -21 -21 -21 -22
-24 -24 -24 -23 -23 -23 -23 -22 -22 -22 -22 -22 -22 -22 -22 -22 -22 -22 -22 -21 -21 -21 -21 -22 -22 -21 -22 -21 -21 -21 -21 -21 -20 -21 -20 -21 -22 -22 -22 -22 -22 -22 -22 -22
-26 -25 -24 -24 -23 -23 -22 -22 -22 -22 -23 -22 -22 -22 -23 -22 -22 -22 -22 -22 -22 -22 -22 -22 -22 -21 -21 -21 -21 -21 -21 -21 -21 -21 -20 -21 -22 -22 -22 -22 -22 -22 -22 -22
-26 -26 -26 -26 -25 -24 -23 -24 -24 -23 -23 -22 -22 -22 -22 -22 -22 -22 -22 -22 -21 -22 -22 -22 -22 -22 -22 -22 -22 -22 -22 -22 -22 -22 -21 -21 -22 -23 -23 -22 -23 -22 -22 -23

GFSCGP_500_temp_033.txt.gz
Temp
-10 -10 -9 -10 -11 -10 -10 -10 -10 -10 -10 -10 -10 -10 -9 -10 -9 -10 -10 -10 -10 -11 -11 -11 -11 -11 -11 -11 -10 -10 -10 -10 -9 -10 -10 -10 -10 -11 -11 -11 -11 -11 -11 -11
-10 -9 -10 -11 -11 -11 -10 -10 -10 -10 -11 -11 -10 -9 -9 -9 -9 -9 -10 -10 -10 -11 -11 -11 -11 -11 -11 -10 -10 -10 -10 -10 -10 -10 -10 -11 -11 -11 -11 -11 -11 -11 -11 -11
-10 -10 -11 -11 -11 -11 -11 -11 -11 -11 -11 -11 -10 -8 -9 -9 -9 -10 -9 -10 -10 -11 -11 -11 -11 -11 -11 -10 -10 -10 -10 -10 -10 -10 -10 -11 -11 -10 -10 -11 -11 -11 -11 -11
-10 -10 -11 -11 -11 -12 -11 -12 -11 -11 -11 -10 -11 -7 -8 -9 -9 -10 -10 -10 -10 -11 -11 -11 -11 -11 -11 -10 -10 -10 -10 -10 -10 -11 -11 -11 -11 -11 -11 -12 -12 -12 -12 -11
-11 -12 -12 -12 -12 -12 -12 -12 -12 -12 -11 -10 -10 -10 -7 -9 -9 -10 -10 -10 -10 -11 -11 -11 -10 -11 -10 -10 -10 -10 -10 -10 -11 -11 -11 -11 -11 -11 -11 -11 -12 -12 -12 -11
-12 -12 -13 -13 -13 -13 -13 -13 -13 -13 -13 -11 -11 -12 -5 -9 -10 -10 -10 -10 -10 -11 -11 -11 -10 -10 -10 -10 -10 -10 -11 -11 -11 -12 -11 -12 -12 -12 -11 -11 -12 -12 -11 -11
-12 -12 -12 -13 -14 -14 -14 -14 -15 -14 -14 -12 -12 -12 -8 -10 -10 -11 -11 -10 -11 -11 -11 -11 -11 -12 -11 -11 -11 -11 -11 -11 -12 -11 -11 -12 -12 -12 -12 -12 -12 -12 -11 -11
-14 -13 -14 -13 -14 -15 -14 -14 -15 -16 -14 -13 -13 -11 -9 -10 -11 -11 -12 -11 -12 -12 -11 -11 -12 -12 -14 -13 -13 -13 -12 -12 -12 -12 -12 -12 -12 -12 -12 -12 -12 -13 -13 -13
-16 -15 -14 -14 -14 -15 -13 -14 -14 -15 -15 -15 -11 -11 -11 -11 -11 -12 -12 -12 -13 -12 -12 -12 -13 -13 -13 -14 -13 -13 -13 -12 -12 -12 -12 -12 -12 -12 -13 -13 -13 -13 -14 -13
-15 -16 -15 -15 -15 -14 -14 -15 -15 -15 -16 -15 -12 -12 -10 -11 -12 -13 -13 -13 -14 -14 -13 -14 -14 -14 -14 -13 -14 -14 -13 -13 -13 -13 -13 -13 -13 -13 -13 -13 -13 -13 -14 -13
-16 -17 -16 -16 -14 -15 -16 -16 -16 -16 -16 -16 -15 -12 -11 -11 -12 -13 -14 -15 -15 -15 -16 -15 -15 -15 -15 -14 -14 -14 -13 -14 -14 -13 -13 -13 -13 -14 -14 -14 -14 -14 -14 -13
-17 -17 -16 -16 -16 -16 -16 -16 -16 -16 -15 -16 -16 -15 -12 -12 -12 -13 -14 -15 -16 -16 -17 -16 -16 -17 -16 -15 -14 -14 -14 -14 -14 -14 -14 -14 -14 -14 -15 -15 -14 -14 -14 -14
-17 -17 -17 -17 -16 -16 -17 -17 -17 -17 -17 -17 -17 -14 -12 -13 -13 -13 -14 -14 -15 -15 -16 -16 -16 -16 -16 -16 -15 -15 -15 -15 -15 -15 -14 -15 -15 -15 -15 -15 -15 -15 -14 -14
-19 -19 -19 -18 -17 -17 -18 -17 -16 -17 -17 -16 -16 -14 -13 -13 -14 -14 -15 -16 -16 -15 -15 -16 -16 -15 -16 -15 -15 -15 -15 -15 -15 -16 -16 -15 -15 -15 -15 -15 -15 -15 -15 -15
-19 -19 -18 -18 -18 -19 -18 -17 -17 -17 -17 -18 -16 -17 -15 -14 -15 -15 -15 -15 -16 -16 -16 -16 -16 -16 -16 -16 -16 -15 -16 -15 -15 -15 -15 -16 -16 -16 -16 -16 -16 -16 -16 -16
-19 -19 -19 -19 -18 -19 -19 -18 -18 -18 -17 -18 -18 -17 -16 -16 -16 -15 -15 -16 -18 -17 -17 -16 -16 -17 -17 -16 -15 -16 -16 -16 -16 -16 -16 -16 -16 -17 -17 -17 -17 -17 -17 -18
-20 -20 -19 -19 -19 -19 -20 -18 -18 -19 -17 -17 -18 -17 -18 -18 -18 -16 -16 -17 -17 -18 -17 -17 -18 -18 -17 -16 -15 -15 -17 -17 -17 -17 -17 -17 -17 -17 -18 -18 -18 -18 -18 -19
-20 -20 -20 -21 -21 -21 -18 -18 -19 -20 -20 -19 -20 -19 -19 -19 -18 -18 -18 -18 -18 -18 -18 -18 -18 -16 -17 -16 -16 -16 -17 -16 -17 -17 -18 -18 -18 -18 -18 -18 -19 -19 -20 -20
-20 -20 -21 -21 -22 -21 -22 -20 -20 -20 -21 -21 -21 -21 -20 -19 -19 -18 -18 -19 -18 -17 -17 -17 -17 -17 -17 -18 -17 -17 -17 -17 -17 -18 -18 -18 -19 -19 -19 -19 -20 -20 -21 -21
-22 -21 -22 -22 -22 -22 -20 -22 -21 -22 -22 -22 -22 -21 -20 -21 -20 -19 -18 -18 -18 -17 -18 -18 -18 -18 -18 -19 -20 -20 -18 -18 -19 -19 -19 -19 -19 -20 -20 -20 -20 -20 -20 -21
-23 -22 -23 -22 -23 -23 -22 -22 -22 -22 -22 -22 -21 -22 -22 -22 -21 -21 -20 -20 -20 -19 -20 -20 -20 -20 -20 -20 -20 -20 -20 -19 -20 -20 -20 -20 -20 -20 -21 -21 -21 -20 -20 -21
-24 -24 -24 -25 -24 -24 -24 -23 -23 -22 -22 -22 -22 -22 -22 -22 -22 -22 -21 -21 -21 -20 -21 -20 -20 -20 -20 -21 -21 -21 -21 -21 -21 -21 -21 -21 -21 -21 -22 -21 -21 -21 -21 -21
-26 -26 -26 -26 -25 -25 -25 -25 -23 -22 -22 -22 -22 -21 -22 -22 -22 -22 -22 -21 -22 -21 -21 -21 -21 -21 -21 -21 -22 -22 -22 -21 -21 -21 -22 -22 -21 -22 -22 -22 -21 -21 -21 -21
-27 -27 -29 -28 -27 -26 -26 -25 -24 -24 -24 -23 -22 -22 -22 -22 -22 -22 -22 -22 -22 -23 -22 -22 -22 -22 -22 -22 -22 -23 -23 -22 -21 -21 -22 -22 -21 -21 -22 -22 -22 -21 -22 -22
-28 -28 -29 -29 -28 -27 -27 -26 -26 -26 -24 -23 -23 -23 -23 -23 -23 -23 -22 -22 -22 -22 -23 -22 -22 -22 -22 -22 -23 -23 -23 -23 -22 -22 -22 -22 -22 -22 -22 -22 -22 -22 -22 -24
-31 -30 -30 -29 -29 -29 -27 -28 -28 -26 -25 -24 -24 -23 -23 -23 -23 -23 -23 -23 -23 -23 -24 -23 -22 -22 -22 -23 -22 -23 -23 -23 -23 -22 -22 -23 -23 -22 -23 -22 -23 -23 -24 -24

GFSCGP_500_temp_036.txt.gz
Temp
-11 -10 -10 -11 -11 -11 -10 -10 -10 -10 -11 -11 -10 -9 -9 -10 -10 -9 -9 -9 -10 -10 -11 -11 -11 -11 -11 -11 -11 -11 -11 -11 -11 -10 -10 -10 -10 -11 -11 -11 -11 -11 -11 -11
-10 -10 -11 -12 -11 -11 -11 -10 -10 -10 -11 -11 -10 -8 -9 -10 -10 -10 -10 -10 -10 -10 -10 -11 -11 -11 -11 -11 -11 -11 -11 -11 -11 -10 -10 -10 -10 -11 -11 -11 -11 -11 -11 -11
-10 -10 -11 -11 -11 -11 -11 -11 -11 -11 -11 -11 -10 -6 -8 -9 -9 -10 -10 -10 -10 -10 -10 -10 -11 -11 -11 -11 -11 -11 -11 -11 -11 -10 -10 -10 -11 -11 -11 -11 -11 -11 -12 -12
-10 -11 -11 -11 -11 -13 -10 -12 -11 -11 -11 -10 -10 -5 -6 -8 -9 -10 -10 -10 -10 -10 -10 -11 -11 -11 -11 -11 -11 -11 -11 -11 -10 -10 -10 -11 -11 -11 -11 -11 -12 -11 -11 -12
-11 -11 -12 -12 -12 -12 -12 -12 -12 -12 -12 -11 -10 -11 -6 -8 -8 -9 -10 -10 -10 -11 -11 -11 -11 -11 -11 -11 -11 -11 -10 -10 -10 -11 -11 -11 -11 -12 -11 -12 -12 -12 -12 -12
-11 -12 -12 -12 -13 -13 -13 -13 -13 -13 -13 -12 -10 -11 -6 -8 -9 -9 -10 -10 -10 -10 -11 -11 -11 -11 -11 -11 -11 -11 -10 -10 -10 -11 -11 -12 -12 -12 -12 -12 -12 -12 -12 -12
-12 -12 -12 -13 -13 -13 -13 -14 -14 -14 -14 -12 -11 -12 -9 -10 -10 -10 -10 -10 -10 -10 -10 -11 -11 -11 -11 -11 -10 -11 -11 -11 -11 -11 -12 -13 -12 -12 -12 -12 -12 -12 -12 -12
-13 -12 -14 -14 -14 -14 -14 -14 -14 -15 -14 -14 -13 -12 -11 -11 -10 -10 -10 -10 -11 -12 -11 -11 -12 -11 -11 -12 -12 -11 -11 -11 -11 -12 -12 -13 -12 -12 -13 -13 -13 -13 -13 -13
-15 -14 -14 -15 -16 -16 -15 -15 -15 -15 -15 -15 -14 -13 -12 -10 -10 -11 -11 -12 -13 -13 -14 -13 -12 -12 -11 -14 -13 -13 -13 -13 -13 -13 -13 -12 -12 -13 -13 -13 -13 -13 -13 -13
-16 -16 -14 -15 -16 -16 -16 -16 -16 -16 -16 -16 -15 -14 -13 -11 -11 -12 -12 -12 -12 -14 -14 -14 -14 -13 -13 -14 -15 -15 -14 -14 -13 -13 -13 -13 -13 -13 -13 -13 -13 -13 -13 -14
-17 -19 -17 -16 -15 -16 -16 -16 -17 -17 -17 -17 -17 -16 -12 -12 -12 -11 -12 -14 -15 -15 -15 -15 -15 -14 -14 -14 -15 -15 -15 -15 -14 -14 -14 -14 -14 -14 -14 -14 -14 -14 -14 -14
-17 -18 -19 -19 -17 -18 -17 -17 -16 -17 -16 -17 -18 -17 -13 -13 -13 -13 -13 -15 -15 -16 -17 -17 -17 -16 -16 -15 -16 -16 -16 -15 -14 -14 -14 -14 -14 -15 -15 -14 -15 -15 -15 -15
-18 -19 -19 -20 -18 -17 -18 -17 -18 -18 -18 -18 -18 -16 -14 -15 -14 -14 -15 -16 -16 -17 -17 -17 -17 -17 -17 -17 -17 -17 -16 -15 -14 -14 -14 -14 -15 -15 -15 -15 -15 -15 -16 -15
-20 -20 -20 -19 -19 -19 -19 -18 -18 -18 -19 -16 -17 -15 -15 -15 -15 -15 -16 -17 -17 -17 -17 -17 -17 -17 -17 -17 -17 -16 -15 -15 -14 -14 -15 -15 -16 -16 -16 -16 -17 -16 -16 -16
-20 -20 -20 -21 -20 -20 -19 -19 -18 -19 -18 -19 -17 -18 -16 -15 -15 -16 -17 -17 -18 -18 -18 -17 -17 -17 -17 -17 -16 -16 -16 -15 -15 -15 -16 -15 -16 -16 -17 -17 -17 -17 -17 -17
-21 -21 -21 -22 -22 -21 -21 -20 -20 -19 -19 -20 -20 -20 -18 -18 -17 -17 -17 -18 -18 -18 -17 -17 -17 -17 -16 -16 -16 -16 -15 -15 -15 -15 -16 -16 -17 -17 -18 -17 -17 -17 -17 -18
-22 -22 -21 -21 -21 -23 -21 -21 -20 -20 -21 -21 -22 -21 -21 -20 -19 -18 -18 -18 -18 -17 -17 -16 -17 -17 -17 -18 -17 -17 -16 -16 -16 -17 -17 -17 -17 -17 -17 -18 -18 -18 -18 -18
-23 -23 -23 -23 -23 -23 -21 -21 -21 -20 -21 -21 -21 -21 -21 -21 -20 -20 -19 -19 -16 -16 -16 -17 -18 -17 -17 -18 -17 -17 -16 -16 -17 -17 -17 -17 -18 -18 -18 -19 -19 -19 -19 -19
-24 -24 -24 -24 -23 -22 -21 -21 -21 -21 -21 -22 -22 -22 -22 -21 -20 -20 -20 -20 -19 -19 -19 -19 -19 -19 -18 -19 -17 -17 -17 -17 -17 -17 -17 -18 -18 -18 -19 -19 -19 -20 -20 -20
-25 -25 -25 -25 -25 -24 -23 -22 -22 -22 -22 -22 -22 -22 -22 -22 -21 -20 -20 -21 -20 -20 -20 -20 -20 -20 -19 -19 -19 -19 -18 -18 -19 -19 -18 -19 -19 -19 -20 -21 -21 -20 -20 -21
-26 -26 -25 -25 -25 -25 -24 -24 -23 -23 -22 -22 -21 -22 -22 -22 -22 -21 -21 -21 -21 -21 -20 -20 -20 -20 -20 -20 -20 -20 -20 -20 -20 -19 -20 -20 -20 -20 -21 -21 -21 -21 -21 -22
-27 -27 -27 -27 -26 -26 -25 -25 -25 -24 -24 -24 -24 -23 -22 -24 -23 -22 -22 -22 -21 -21 -22 -21 -21 -20 -20 -20 -21 -20 -20 -20 -21 -22 -21 -20 -21 -21 -22 -22 -22 -21 -21 -22
-29 -29 -28 -28 -27 -27 -27 -27 -27 -26 -25 -25 -25 -24 -24 -24 -24 -23 -22 -23 -23 -22 -22 -22 -23 -22 -21 -21 -21 -20 -20 -21 -22 -21 -21 -21 -22 -22 -22 -22 -23 -23 -22 -22
-29 -29 -30 -29 -29 -29 -29 -29 -30 -29 -29 -28 -28 -27 -27 -26 -25 -24 -24 -23 -24 -23 -23 -23 -23 -22 -22 -21 -22 -22 -21 -22 -22 -22 -22 -22 -22 -22 -22 -22 -23 -23 -23 -22
-29 -29 -30 -30 -31 -32 -30 -30 -31 -30 -31 -30 -29 -28 -27 -27 -26 -26 -25 -25 -24 -25 -24 -24 -23 -22 -22 -22 -22 -23 -22 -23 -23 -23 -23 -22 -22 -22 -22 -23 -22 -22 -22 -22
-31 -33 -33 -33 -33 -33 -31 -31 -32 -31 -31 -31 -31 -30 -30 -29 -28 -27 -26 -25 -25 -25 -25 -24 -24 -23 -22 -23 -23 -23 -23 -23 -23 -23 -22 -23 -23 -23 -23 -23 -22 -23 -23 -22

GFSCGP_500_temp_042.txt.gz
Temp
-11 -10 -11 -12 -11 -11 -10 -10 -9 -10 -10 -8 -7 -7 -8 -8 -8 -9 -10 -10 -10 -10 -10 -10 -11 -11 -11 -11 -11 -11 -11 -11 -11 -11 -11 -11 -11 -11 -11 -11 -11 -11 -11 -11
-10 -10 -11 -11 -11 -11 -11 -10 -10 -10 -10 -9 -8 -7 -7 -8 -8 -9 -9 -10 -10 -10 -10 -10 -10 -11 -11 -11 -11 -11 -11 -11 -11 -11 -11 -11 -11 -11 -11 -11 -11 -11 -11 -12
-10 -10 -11 -11 -11 -11 -11 -11 -10 -10 -10 -9 -8 -6 -8 -8 -8 -9 -10 -10 -10 -10 -11 -11 -11 -11 -11 -10 -10 -10 -10 -11 -11 -11 -11 -11 -11 -11 -11 -11 -11 -11 -12 -12
-11 -12 -12 -12 -11 -12 -11 -12 -11 -11 -10 -9 -9 -6 -6 -7 -8 -9 -10 -10 -10 -10 -11 -11 -11 -11 -11 -11 -11 -10 -10 -10 -11 -11 -11 -11 -11 -11 -11 -11 -11 -11 -11 -12
-12 -12 -12 -12 -13 -13 -12 -12 -13 -12 -12 -10 -9 -10 -6 -8 -8 -9 -9 -10 -11 -11 -11 -11 -10 -10 -11 -11 -11 -11 -10 -10 -10 -11 -11 -11 -11 -11 -12 -11 -11 -11 -11 -11
-12 -12 -12 -13 -13 -13 -13 -13 -13 -13 -12 -11 -10 -11 -4 -7 -7 -9 -10 -11 -11 -12 -12 -12 -11 -11 -11 -11 -11 -11 -11 -11 -10 -10 -11 -11 -11 -11 -12 -12 -12 -11 -12 -12
-13 -13 -12 -14 -14 -14 -15 -14 -14 -14 -14 -12 -12 -12 -7 -8 -9 -10 -11 -12 -13 -13 -13 -13 -12 -12 -12 -11 -11 -11 -11 -12 -11 -11 -10 -11 -12 -12 -12 -12 -12 -12 -12 -12
-13 -12 -14 -14 -15 -15 -15 -16 -17 -17 -15 -15 -15 -12 -7 -9 -9 -11 -13 -13 -14 -14 -14 -14 -13 -13 -12 -11 -11 -11 -11 -11 -11 -11 -11 -11 -11 -12 -13 -13 -13 -13 -13 -14
-15 -12 -14 -14 -15 -15 -15 -16 -16 -17 -17 -17 -15 -14 -13 -9 -11 -13 -14 -15 -15 -14 -14 -14 -14 -14 -13 -12 -12 -12 -13 -13 -13 -12 -12 -11 -11 -12 -13 -13 -13 -14 -14 -15
-16 -16 -14 -14 -15 -15 -16 -16 -17 -17 -18 -18 -18 -16 -14 -12 -12 -13 -14 -15 -14 -14 -14 -14 -14 -14 -13 -13 -13 -13 -14 -15 -15 -14 -14 -14 -12 -14 -14 -14 -14 -14 -15 -15
-17 -17 -14 -15 -14 -16 -17 -17 -17 -19 -19 -19 -19 -19 -14 -14 -14 -14 -15 -16 -16 -15 -15 -15 -14 -15 -15 -14 -13 -14 -14 -15 -15 -15 -16 -16 -15 -15 -15 -15 -15 -15 -16 -16
-17 -19 -18 -16 -16 -16 -17 -18 -19 -20 -20 -20 -21 -20 -18 -19 -18 -18 -16 -17 -17 -16 -16 -15 -14 -15 -16 -15 -14 -16 -16 -16 -16 -16 -15 -15 -15 -16 -16 -16 -16 -17 -17 -17
-18 -18 -19 -18 -17 -17 -19 -19 -20 -20 -21 -20 -20 -20 -20 -20 -20 -20 -18 -17 -17 -17 -16 -15 -15 -15 -17 -17 -17 -17 -18 -17 -17 -18 -17 -15 -15 -16 -17 -17 -18 -18 -18 -18
-20 -20 -20 -20 -19 -19 -19 -20 -20 -20 -21 -21 -21 -21 -21 -21 -21 -21 -20 -20 -19 -19 -18 -17 -17 -16 -16 -18 -18 -19 -19 -18 -17 -18 -18 -17 -16 -16 -17 -17 -17 -17 -17 -18
-22 -22 -22 -21 -21 -22 -22 -21 -21 -21 -22 -21 -20 -21 -21 -21 -21 -21 -21 -21 -20 -20 -19 -18 -19 -18 -18 -18 -19 -19 -18 -18 -18 -18 -18 -18 -17 -18 -18 -18 -17 -16 -16 -17
-22 -22 -23 -22 -22 -23 -23 -22 -22 -22 -22 -22 -23 -22 -22 -21 -21 -21 -21 -21 -21 -21 -20 -21 -21 -19 -19 -18 -19 -19 -19 -18 -18 -18 -18 -18 -18 -17 -18 -18 -18 -17 -17 -17
-23 -23 -24 -23 -23 -24 -23 -22 -23 -23 -23 -23 -23 -23 -23 -22 -22 -22 -22 -22 -22 -22 -22 -22 -22 -21 -20 -19 -19 -19 -19 -19 -18 -19 -19 -19 -18 -18 -18 -17 -17 -17 -17 -17
-25 -25 -25 -25 -24 -25 -24 -24 -24 -24 -24 -24 -24 -24 -24 -24 -24 -24 -24 -23 -23 -23 -22 -22 -22 -22 -21 -20 -20 -19 -20 -19 -20 -20 -19 -19 -19 -18 -17 -17 -18 -18 -17 -18
-26 -26 -26 -26 -26 -26 -26 -26 -26 -26 -26 -26 -26 -26 -26 -26 -26 -26 -26 -26 -25 -25 -24 -23 -22 -22 -22 -21 -20 -19 -20 -20 -19 -21 -20 -20 -19 -19 -18 -18 -18 -18 -18 -18
-26 -27 -27 -27 -27 -27 -27 -27 -27 -27 -27 -27 -27 -27 -27 -27 -27 -27 -27 -27 -27 -27 -26 -25 -23 -23 -23 -22 -22 -21 -21 -21 -20 -21 -22 -21 -21 -20 -20 -20 -19 -19 -18 -18
-27 -28 -28 -28 -28 -28 -28 -28 -28 -29 -29 -29 -29 -28 -28 -28 -28 -27 -27 -27 -28 -27 -27 -26 -26 -24 -24 -24 -23 -23 -22 -21 -21 -22 -22 -22 -22 -21 -20 -20 -20 -20 -20 -20
-29 -29 -29 -29 -29 -29 -29 -29 -29 -29 -29 -29 -29 -29 -29 -29 -29 -29 -28 -28 -28 -28 -27 -27 -27 -26 -26 -26 -25 -25 -24 -23 -23 -22 -22 -23 -22 -22 -22 -22 -22 -22 -22 -21
-30 -30 -30 -30 -30 -30 -30 -30 -30 -31 -31 -30 -30 -30 -30 -30 -30 -29 -29 -29 -28 -28 -28 -28 -27 -26 -26 -27 -26 -25 -26 -25 -25 -24 -23 -23 -22 -22 -23 -23 -23 -23 -23 -22
-30 -30 -31 -30 -30 -31 -31 -31 -31 -32 -32 -31 -31 -31 -32 -32 -31 -31 -30 -30 -29 -29 -29 -28 -28 -27 -26 -26 -26 -26 -26 -26 -26 -25 -25 -25 -24 -23 -22 -23 -23 -23 -22 -22
-30 -31 -31 -31 -30 -32 -32 -32 -33 -33 -33 -33 -33 -33 -33 -33 -33 -34 -32 -32 -32 -31 -31 -31 -30 -28 -27 -27 -26 -26 -26 -26 -25 -25 -24 -24 -24 -24 -23 -24 -24 -24 -23 -23
-32 -32 -33 -33 -32 -34 -33 -34 -34 -34 -34 -35 -35 -35 -36 -36 -35 -34 -34 -34 -33 -33 -33 -32 -31 -30 -29 -28 -27 -27 -27 -27 -26 -25 -25 -25 -24 -24 -24 -24 -25 -24 -23 -23